Voltar ao catálogo

COSMOS 990

AtivoMilitarLEO
NORAD 10676·PAYLOAD·🇷🇺 Russia

Lançado Feb 17, 1978 de Plesetsk Cosmodrome

Loading…

Próximas Passagens (próximas 24 horas)

TLE

AtualizadoSource: Space-Track

Época: Sep 14, 2026, 04:58 UTC

1 10676U 78019A   26257.20735712  .00000099  00000-0  42082-4 0  9992
2 10676  74.0412 347.3065 0017377 296.7275  63.2100 14.37267096542818

Acompanhe COSMOS 990 em tempo real com AllMySat

Download on the App Store